Preview of NWS' New Version of Forecast
This preview is not operational and should not be used for support decisions.

Regional Weather Roundup (RWR)

Issued by National Weather Service (NWS)

                            
000
ASUS45 KBOI 181410
RWRID 

IDAHO REGIONAL WEATHER ROUNDUP
NATIONAL WEATHER SERVICE BOISE ID
800 AM MDT MON MAR 18 2019

NOTE: "FAIR" INDICATES FEW OR NO CLOUDS BELOW 12000 FEET
WITH NO SIGNIFICANT WEATHER AND/OR OBSTRUCTIONS TO VISIBILITY

IDZ012-014-181500-
SOUTHWEST IDAHO

  
CITY           SKY/WX    TMP DP  RH WIND       PRES   REMARKS
BOISE          CLEAR     35  26  69 SE8       30.23R WCI  29          
CALDWELL       CLEAR     28  24  85 CALM      30.25R                  
MOUNTAIN HOME  CLEAR     27  27 100 E5        30.24R WCI  22          
$$

IDZ016-017-181500-
SOUTHCENTRAL IDAHO

  
CITY           SKY/WX    TMP DP  RH WIND       PRES   REMARKS
BURLEY         PTCLDY    29  24  82 CALM      30.22R                  
JEROME         PTCLDY    32  22  66 NE14      30.23R WCI  22          
TWIN FALLS     MOCLDY    24  22  91 SE5       30.23R WCI  18          
$$

IDZ019>023-181500-
SOUTHEAST IDAHO

  
CITY           SKY/WX    TMP DP  RH WIND       PRES   REMARKS
IDAHO FALLS    CLEAR     25  20  81 N6        30.25S WCI  18          
POCATELLO      PTCLDY    25  22  88 CALM      30.25R                  
REXBURG        CLEAR     20  14  77 N5        30.26R WCI  13          
$$

IDZ006-010-011-018-031-032-181500-
CENTRAL IDAHO MOUNTAINS

  
CITY           SKY/WX    TMP DP  RH WIND       PRES   REMARKS
MCCALL         CLEAR     16  12  84 CALM      30.22R                  
HAILEY         CLEAR     25  18  74 NW10      30.25S WCI  15          
STANLEY          N/A      3  -2  79 E3        30.29R                  
SALMON         CLEAR     17  15  92 CALM      30.35R                  
CHALLIS        CLEAR     24  18  77 CALM      30.29S                  
$$

IDZ002-004-006-007-026-181500-
NORTHERN IDAHO

  
CITY           SKY/WX    TMP DP  RH WIND       PRES   REMARKS
LEWISTON       CLEAR     31  27  85 CALM      30.34S                  
LOWELL         NOT AVBL                                               
COEUR D'ALENE  CLEAR     28  26  92 E9        30.34S WCI  19          
MULLAN PASS    CLEAR     30  19  63 SE5       30.28R WCI  25          
$$